sat.trackr.live / text

‹ back to catalog

STARLINK-30898

NORAD 58387 · 2023-178P

PAYLOAD ACTIVE UNKNOWN

§ Identity

Operator
Country
US
Launch date
2023-11-20
Launch site
AFWTR
Launch vehicle
Mass (kg)
RCS (m²)

Purposes: comms

External: N2YO · Heavens-Above · Gunter

§ Orbital elements

Epoch: 2026-05-25T00:17:52.579104Z

Period
93.85 min
Inclination
53.1613°
Eccentricity
0.0001315
Mean motion
15.34389740 rev/d
Perigee alt
461.8 km
Apogee alt
463.6 km
Semi-major
6,840.9 km
B*
3.4374e-5
RAAN
5.9479°
Arg perigee
90.0021°
Mean anomaly
270.1132°
Rev number
14,158

§ Raw data

STARLINK-308981 58387U 23178P   26145.01241411  .00000785  00000+0  34374-4 0  99982 58387  53.1613   5.9479 0001315  90.0021 270.1132 15.34389740141587

JSON: /api/v1/satellites/58387 · /tle

For live sub-satellite position, see the globe view (requires WebGL).

§ Visibility from observer

Set your observer location to see the next 7 days of passes ≥ 10°. The values pass through the URL so the page stays shareable.

No JS? Fill the form by hand. The geolocation button needs JavaScript.